sat.trackr.live / text

‹ back to catalog

STARLINK-2583

NORAD 48439 · 2021-040M

PAYLOAD ACTIVE UNKNOWN

§ Identity

Operator
Country
US
Launch date
2021-05-09
Launch site
AFETR
Launch vehicle
Mass (kg)
RCS (m²)

Purposes: comms

External: N2YO · Heavens-Above · Gunter

§ Orbital elements

Epoch: 2026-09-19T23:15:39.845088Z

Period
94.01 min
Inclination
53.1617°
Eccentricity
0.0000684
Mean motion
15.31698542 rev/d
Perigee alt
470.3 km
Apogee alt
471.2 km
Semi-major
6,848.9 km
B*
7.3399e-5
RAAN
354.2452°
Arg perigee
93.4460°
Mean anomaly
266.6620°
Rev number
29,644

§ Raw data

STARLINK-25831 48439U 21040M   26262.96921117  .00001913  00000+0  73399-4 0  99972 48439  53.1617 354.2452 0000684  93.4460 266.6620 15.31698542296449

JSON: /api/v1/satellites/48439 · /tle

For live sub-satellite position, see the globe view (requires WebGL).

§ Visibility from observer

Set your observer location to see the next 7 days of passes ≥ 10°. The values pass through the URL so the page stays shareable.

No JS? Fill the form by hand. The geolocation button needs JavaScript.